Location: Franklinton
(36.1018°N, 78.4581°W)
Time: 21:50:16
(UTC-04:00)

Hubble Space Telescope - Visible Passes

Search period start: 23 April 2019 00:00
Search period end: 03 May 2019 00:00
Orbit: 537 x 540 km, 28.5° (Epoch: 22 April)

Date Brightness Start Highest point End Pass type
(mag) Time Alt. Az. Time Alt. Az. Time Alt. Az.
23 Apr 2.9 05:40:24 10° SSW 05:42:56 16° SSE 05:45:27 10° SE visible
24 Apr 2.7 05:29:50 11° SSW 05:32:20 18° SSE 05:35:12 10° ESE visible
25 Apr 2.5 05:19:48 15° SSW 05:21:43 21° SSE 05:24:51 10° ESE visible
26 Apr 2.3 05:09:46 19° SSW 05:11:09 23° S 05:14:27 10° ESE visible
27 Apr 2.1 04:59:43 23° SSW 05:00:34 25° S 05:03:59 10° ESE visible
28 Apr 2.0 04:49:42 26° S 04:49:59 26° S 04:53:29 10° ESE visible
29 Apr 2.0 04:39:42 27° S 04:39:42 27° S 04:42:58 10° ESE visible
30 Apr 2.2 04:29:45 26° SSE 04:29:45 26° SSE 04:32:25 10° ESE visible
01 May 2.5 04:19:53 21° SE 04:19:53 21° SE 04:21:50 10° ESE visible
02 May 2.9 04:10:06 16° SE 04:10:06 16° SE 04:11:13 10° SE visible
02 May 2.5 05:45:42 10° WSW 05:48:21 17° SSW 05:51:01 10° SSE visible
